Sheboygan, WI

6:52 PM CDT on August 19, 2017 (GMT -0500)
Sheboygan County Memorial

Weather History for KSBM - October, 2013

Change the Weather History Date:

Sunday, October 6, 2013

  Actual Average Record
Temperature  
Mean Temperature 58 °F -  
Max Temperature 64 °F 63 °F 90 °F (1963)
Min Temperature 51 °F 45 °F 26 °F (1952)
Degree Days  
Heating Degree Days 8    
Growing Degree Days 8 (Base 50)    
Moisture  
Dew Point 51 °F    
Average Humidity 79    
Maximum Humidity 100    
Minimum Humidity 46    
Precipitation  
Precipitation 0.13 in - - ()
Sea Level Pressure  
Sea Level Pressure 29.70 in    
Wind  
Wind Speed 7 mph (WSW)    
Max Wind Speed 12 mph    
Max Gust Speed -    
Visibility 10 miles    
Events Rain    
Averages and records for this station are not official NWS values.
T = Trace of Precipitation, MM = Missing Value Source: NWS Daily Summary

Daily Weather History Graph

Daily Weather History Graph

Search for Another Location

Airport or City:

Trip Planner

Search our weather history database for the weather conditions in past years. The results will help you decide how hot, cold, wet, or windy it might be!

Date:

Astronomy

Oct. 06, 2013 Rise Set
Actual Time 6:55 AM CDT 6:22 PM CDT
Civil Twilight 6:26 AM CDT 6:51 PM CDT
Nautical Twilight 5:53 AM CDT 7:24 PM CDT
Astronomical Twilight 5:19 AM CDT 7:58 PM CDT
Moon 8:43 AM CDT (10/6) 7:17 PM CDT (10/6)
Length of Visible Light 12h 25m
Length of Day
11h 27m
Waxing Crescent, 3% of the Moon is Illuminated
Oct 6
Waxing Crescent
Oct 11
First Quarter
Oct 18
Full
Oct 26
Last Quarter
Nov 3
New

Hourly Weather History & Observations

Time (CDT) Temp. Dew Point Humidity Pressure Visibility Wind Dir Wind Speed Gust Speed Precip Events Conditions
12:53 AM 64.0 °F 64.0 °F 100% 29.72 in 8.0 mi South 6.9 mph - 0.00 in Rain Light Rain
1:16 AM 64.4 °F 64.4 °F 100% 29.73 in 8.0 mi SSW 5.8 mph - 0.00 in   Overcast
1:25 AM 64.4 °F 64.4 °F 100% 29.73 in 8.0 mi SSW 6.9 mph - 0.00 in   Overcast
1:33 AM 64.4 °F 64.4 °F 100% 29.73 in 7.0 mi SW 6.9 mph - 0.00 in   Overcast
1:53 AM 64.0 °F 64.0 °F 100% 29.71 in 10.0 mi WSW 5.8 mph - 0.00 in   Overcast
2:53 AM 60.1 °F 57.9 °F 93% 29.72 in 10.0 mi West 11.5 mph - 0.00 in   Overcast
3:08 AM 60.8 °F 57.2 °F 88% 29.72 in 9.0 mi West 9.2 mph - 0.00 in Rain Light Rain
3:32 AM 59.0 °F 57.2 °F 94% 29.70 in 10.0 mi West 6.9 mph - 0.00 in   Overcast
3:53 AM 57.9 °F 57.0 °F 97% 29.68 in 10.0 mi Calm Calm - 0.00 in   Overcast
4:53 AM 57.0 °F 55.9 °F 96% 29.72 in 10.0 mi WSW 10.4 mph - 0.00 in Rain Light Rain
5:53 AM 55.0 °F 53.1 °F 93% 29.71 in 10.0 mi SW 9.2 mph - 0.10 in Rain Light Rain
6:53 AM 53.1 °F 50.0 °F 89% 29.73 in 10.0 mi WSW 3.5 mph - 0.03 in   Overcast
7:53 AM 53.1 °F 50.0 °F 89% 29.72 in 10.0 mi West 5.8 mph - 0.00 in   Overcast
8:53 AM 53.1 °F 48.9 °F 86% 29.72 in 10.0 mi West 5.8 mph - N/A   Overcast
9:53 AM 53.1 °F 46.9 °F 80% 29.72 in 10.0 mi West 8.1 mph - N/A   Overcast
10:53 AM 57.0 °F 46.9 °F 69% 29.71 in 10.0 mi WSW 10.4 mph - N/A   Partly Cloudy
11:53 AM 59.0 °F 43.0 °F 55% 29.71 in 10.0 mi WSW 8.1 mph - N/A   Clear
12:53 PM 61.0 °F 42.1 °F 50% 29.69 in 10.0 mi NW 8.1 mph - N/A   Clear
1:53 PM 61.0 °F 39.9 °F 46% 29.68 in 10.0 mi WSW 5.8 mph - N/A   Clear
2:53 PM 60.1 °F 41.0 °F 49% 29.67 in 10.0 mi WSW 10.4 mph - N/A   Mostly Cloudy
3:53 PM 59.0 °F 42.1 °F 53% 29.67 in 10.0 mi West 6.9 mph - N/A   Mostly Cloudy
4:53 PM 60.1 °F 42.1 °F 51% 29.66 in 10.0 mi Calm Calm - N/A   Mostly Cloudy
5:53 PM 55.9 °F 45.0 °F 67% 29.69 in 10.0 mi SW 3.5 mph - N/A   Overcast
6:53 PM 54.0 °F 48.0 °F 80% 29.69 in 10.0 mi SSW 5.8 mph - N/A   Overcast
7:53 PM 54.0 °F 46.9 °F 77% 29.69 in 10.0 mi SW 5.8 mph - N/A   Overcast
8:53 PM 54.0 °F 44.1 °F 69% 29.70 in 10.0 mi West 10.4 mph - N/A   Overcast
9:53 PM 52.0 °F 43.0 °F 71% 29.71 in 10.0 mi West 10.4 mph - N/A   Overcast
10:53 PM 51.1 °F 43.0 °F 74% 29.70 in 10.0 mi West 9.2 mph - N/A   Overcast
11:53 PM 51.1 °F 43.0 °F 74% 29.69 in 10.0 mi WSW 9.2 mph - N/A   Overcast